This is the latest recevied weather packets stored in our database for station/object KA9CBS. If no packets are shown the sender has not sent any weather packets the latest 10 day(s).
| Time | Temp. | Humidity | Pressure | Rain* | Wind** | Luminosity | Snow |
|---|---|---|---|---|---|---|---|
| 1788142388 | 22.78° C | 78% | 1018.4 hPa | 0 mm | - | 0 W/m² | - |
| 1788142084 | 23.33° C | 77% | 1018.2 hPa | 0 mm | - | 0 W/m² | - |
| 1788141783 | 23.33° C | 75% | 1018.3 hPa | 0 mm | - | 0 W/m² | - |
| 1788141479 | 23.89° C | 73% | 1018.4 hPa | 0 mm | - | 0 W/m² | - |
| 1788141174 | 23.89° C | 73% | 1018.2 hPa | 0 mm | - | 0 W/m² | - |
| 1788140869 | 23.89° C | 73% | 1018.3 hPa | 0 mm | - | 0 W/m² | - |
| 1788140569 | 23.89° C | 73% | 1018.3 hPa | 0 mm | - | 0 W/m² | - |
| 1788140266 | 23.89° C | 73% | 1017.9 hPa | 0 mm | - | 0 W/m² | - |
| 1788139964 | 23.89° C | 73% | 1018.1 hPa | 0 mm | - | 0 W/m² | - |
| 1788139659 | 23.89° C | 73% | 1017.7 hPa | 0 mm | - | 0 W/m² | - |
| 1788139355 | 23.89° C | 73% | 1017.8 hPa | 0 mm | - | 0 W/m² | - |
| 1788139054 | 24.44° C | 74% | 1018.2 hPa | 0 mm | - | 0 W/m² | - |
| 1788138750 | 24.44° C | 73% | 1017.9 hPa | 0 mm | - | 0 W/m² | - |
| 1788138445 | 25° C | 72% | 1017.6 hPa | 0 mm | - | 0 W/m² | - |
| 1788138140 | 25.56° C | 68% | 1017.8 hPa | 0 mm | - | 0 W/m² | - |
| 1788137835 | 25.56° C | 67% | 1017.8 hPa | 0 mm | - | 0 W/m² | - |
| 1788137530 | 25.56° C | 66% | 1017.9 hPa | 0 mm | - | 0 W/m² | - |
| 1788137225 | 26.67° C | 67% | 1017.7 hPa | 0 mm | - | 0 W/m² | - |
| 1788136922 | 27.22° C | 63% | 1017.6 hPa | 0 mm | - | 0 W/m² | - |
| 1788136617 | 27.78° C | 62% | 1017.7 hPa | 0 mm | - | 0 W/m² | - |
| 1788136313 | 27.78° C | 60% | 1017.9 hPa | 0 mm | - | 0 W/m² | - |
| 1788136012 | 28.33° C | 59% | 1017.8 hPa | 0 mm | - | 1 W/m² | - |
| 1788135707 | 28.89° C | 57% | 1017.8 hPa | 0 mm | - | 4 W/m² | - |
| 1788135403 | 28.89° C | 57% | 1017.8 hPa | 0 mm | - | 7 W/m² | - |
| 1788135098 | 28.89° C | 55% | 1017.7 hPa | 0 mm | - | 10 W/m² | - |
* Rain latest hour (hover to see other rain measurements)
** Current wind speed in m/s (hover to see current wind gust speed)